(493592) = 2015 MC28

Discovered at Haleakala on 2012-10-22 by Pan-STARRS 1.

Orbit

Orbit type: Main Belt

Note: WebGL enabled browser required.

epoch2023-09-13.0
epoch JD2460200.5
perihelion date2023-06-11.34936
perihelion JD2460106.84936
argument of perihelion (°)135.49550
ascending node (°)285.22974
inclination (°)8.87788
eccentricity0.0670892
perihelion distance (AU)2.8246604
Tisserand w.r.t. Jupiter3.2
ΔV w.r.t. Earth (km/sec)10.8
semimajor axis (AU)3.0277925
mean anomaly (°)17.51965
mean daily motion (°/day)0.18707450
aphelion distance (AU)3.231
period (years)5.27
P-vector [x]0.48089518
P-vector [y]0.75525045
P-vector [z]0.44534996
Q-vector [x]-0.86404048
Q-vector [y]0.49448836
Q-vector [z]0.09442090
absolute magnitude16.4
phase slope0.15
uncertainty0
referenceMPEC 2024-B63
observations used181
oppositions11
arc length (days)9456
first opposition used1998
last opposition used2024
residual rms (arc-secs)0.76
perturbers coarse indicatorM-v
perturbers precise indicator003Ek
first observation date used1998-02-28.0
last observation date used2024-01-19.0
computer nameMPCLINUX
Minimum Orbit Intersection Distances (in AU)
for orbit epoch: 2460200.5, reference: E2024-B63
Mercury2.51557
Venus2.1098
Earth1.84522
Mars1.2698
Jupiter2.00656
Saturn6.19224
Uranus15.4
Neptune27.0154

Observations

183 total observations over interval: 1998 02 28.29236 – 2024 01 19.163599
These data are available for download (format description).

Date (UT) J2000 RA J2000 Dec Magn Location Ref
1998 02 28.29236 08 44 19.52 +10 36 25.4 21.1 V 691 – Steward Observatory, Kitt Peak-Spacewatch MPS 615237
1998 02 28.31378 08 44 18.69 +10 36 27.0 21.3 V 691 – Steward Observatory, Kitt Peak-Spacewatch MPS 615237
1998 02 28.33507 08 44 17.90 +10 36 29.3 21.0 V 691 – Steward Observatory, Kitt Peak-Spacewatch MPS 615237
2008 02 07.18507 05 11 01.14 +24 52 15.1 20.8 V G96 – Mt. Lemmon Survey MPS 615237
2008 02 07.19309 05 11 01.14 +24 52 13.3 21.0 V G96 – Mt. Lemmon Survey MPS 615237
2008 02 07.20112 05 11 01.21 +24 52 11.6 20.8 V G96 – Mt. Lemmon Survey MPS 615237
2008 02 07.20921 05 11 01.24 +24 52 10.4 20.7 V G96 – Mt. Lemmon Survey MPS 615237
2012 10 22.547809 04 02 01.839 +31 08 14.14 20.6 w F51 – Pan-STARRS 1, Haleakala MPS 615237
2012 10 22.562313 04 02 01.332 +31 08 13.55 20.6 w F51 – Pan-STARRS 1, Haleakala MPS 615237
2012 10 22.576802 04 02 00.839 +31 08 12.67 20.7 w F51 – Pan-STARRS 1, Haleakala MPS 615237
2012 10 22.591293 04 02 00.339 +31 08 11.93 21.0 w F51 – Pan-STARRS 1, Haleakala MPS 615237
2012 12 06.26825 03 25 26.86 +28 12 57.0 20.3 V 703 – Catalina Sky Survey MPS 615237
2012 12 06.27720 03 25 26.50 +28 12 53.4 20.3 V 703 – Catalina Sky Survey MPS 615237
2012 12 06.28616 03 25 26.04 +28 12 49.3 19.6 V 703 – Catalina Sky Survey MPS 615237
2012 12 06.29510 03 25 25.57 +28 12 45.5 20.2 V 703 – Catalina Sky Survey MPS 615237
2014 02 10.43862 10 15 41.199 +00 45 49.06 20.3 i F51 – Pan-STARRS 1, Haleakala MPS 615237
2014 02 10.45097 10 15 40.577 +00 45 50.31 20.3 i F51 – Pan-STARRS 1, Haleakala MPS 615237
2014 02 10.46338 10 15 39.954 +00 45 51.45 20.2 i F51 – Pan-STARRS 1, Haleakala MPS 615237
2014 02 20.37911 10 07 27.31 +01 08 24.0 20.0 V G96 – Mt. Lemmon Survey MPS 615237
2014 02 20.38365 10 07 27.08 +01 08 24.5 20.3 V G96 – Mt. Lemmon Survey MPS 615237
2014 02 20.38818 10 07 26.86 +01 08 25.2 20.4 V G96 – Mt. Lemmon Survey MPS 615237
2014 02 20.39272 10 07 26.61 +01 08 25.9 20.4 V G96 – Mt. Lemmon Survey MPS 615237
2014 03 24.31773 09 45 32.606 +02 54 00.40 21.2 w F51 – Pan-STARRS 1, Haleakala MPS 615237
2014 03 24.33019 09 45 32.262 +02 54 02.48 21.2 w F51 – Pan-STARRS 1, Haleakala MPS 615237
2014 03 24.34265 09 45 31.953 +02 54 04.95 20.9 w F51 – Pan-STARRS 1, Haleakala MPS 615237
2015 04 20.49862 15 18 03.416 -29 18 11.40 21.2 w F51 – Pan-STARRS 1, Haleakala MPS 612808
2015 04 20.50937 15 18 02.958 -29 18 10.35 20.9 w F51 – Pan-STARRS 1, Haleakala MPS 612808
2015 04 20.52005 15 18 02.458 -29 18 09.04 21.2 w F51 – Pan-STARRS 1, Haleakala MPS 612808
2015 05 15.39065 14 57 47.985 -27 50 25.27 20.7 w F51 – Pan-STARRS 1, Haleakala MPS 612808
2015 05 15.41189 14 57 46.903 -27 50 19.28 20.8 w F51 – Pan-STARRS 1, Haleakala MPS 612808
2015 05 15.42259 14 57 46.317 -27 50 15.88 20.7 w F51 – Pan-STARRS 1, Haleakala MPS 612808
2015 05 18.38866 14 55 19.922 -27 35 22.43 21.0 w F51 – Pan-STARRS 1, Haleakala MPS 612808
2015 05 18.39923 14 55 19.390 -27 35 19.32 21.0 w F51 – Pan-STARRS 1, Haleakala MPS 612808
2015 05 18.40983 14 55 18.857 -27 35 16.26 20.9 w F51 – Pan-STARRS 1, Haleakala MPS 612808
2015 05 18.42046 14 55 18.327 -27 35 12.75 20.9 w F51 – Pan-STARRS 1, Haleakala MPS 612808
2015 05 23.95491 14 50 58.04 -27 05 51.6 20.8 V W84 – Cerro Tololo-DECam MPS 785652
2015 05 23.95810 14 50 57.90 -27 05 50.7   W84 – Cerro Tololo-DECam MPS 785652
2015 05 23.96127 14 50 57.75 -27 05 49.7   W84 – Cerro Tololo-DECam MPS 785652
2015 05 23.96446 14 50 57.61 -27 05 48.6   W84 – Cerro Tololo-DECam MPS 785652
2015 05 23.96762 14 50 57.46 -27 05 47.7   W84 – Cerro Tololo-DECam MPS 785652
2015 06 07.34585 14 41 42.221 -25 46 24.57 21.2 w F51 – Pan-STARRS 1, Haleakala MPS 612808
2015 06 07.35617 14 41 41.868 -25 46 21.37 21.3 w F51 – Pan-STARRS 1, Haleakala MPS 612808
2015 06 07.36652 14 41 41.552 -25 46 17.83 21.1 w F51 – Pan-STARRS 1, Haleakala MPS 612808
2015 06 18.30426 14 37 16.920 -24 49 26.15 21.3 w F51 – Pan-STARRS 1, Haleakala MPS 612808
2015 06 18.31656 14 37 16.711 -24 49 22.65 21.7 w F51 – Pan-STARRS 1, Haleakala MPS 612808
2015 06 18.32883 14 37 16.469 -24 49 19.29 21.5 w F51 – Pan-STARRS 1, Haleakala MPS 612808
2015 06 19.29119 14 37 00.687 -24 44 40.16 21.7 w F51 – Pan-STARRS 1, Haleakala MPS 612808
2015 06 19.31499 14 37 00.261 -24 44 33.39 21.4 w F51 – Pan-STARRS 1, Haleakala MPS 612808
2015 06 19.32686 14 37 00.035 -24 44 29.94 21.7 w F51 – Pan-STARRS 1, Haleakala MPS 612808
2016 07 13.46615 20 30 40.889 -15 14 39.15 20.9 w F51 – Pan-STARRS 1, Haleakala MPS 719588
2016 07 13.47779 20 30 40.318 -15 14 39.21 20.7 w F51 – Pan-STARRS 1, Haleakala MPS 719588
2016 07 13.48946 20 30 39.743 -15 14 39.37 20.9 w F51 – Pan-STARRS 1, Haleakala MPS 719588
2016 07 13.50110 20 30 39.181 -15 14 39.37 20.8 w F51 – Pan-STARRS 1, Haleakala MPS 719588
2016 08 08.40989 20 09 03.127 -15 27 22.64 20.8 w F51 – Pan-STARRS 1, Haleakala MPS 723683
2016 08 08.42102 20 09 02.584 -15 27 23.14 20.7 w F51 – Pan-STARRS 1, Haleakala MPS 723683
2016 08 08.43217 20 09 02.041 -15 27 23.51 20.7 w F51 – Pan-STARRS 1, Haleakala MPS 723683
2017 10 13.44895 01 53 38.61 +25 36 06.4 20.4 G G96 – Mt. Lemmon Survey MPS 826184
2017 10 13.45368 01 53 38.35 +25 36 05.5 20.3 G G96 – Mt. Lemmon Survey MPS 826184
2017 10 13.46121 01 53 37.99 +25 36 04.2 20.3 G G96 – Mt. Lemmon Survey MPS 826184
2017 10 13.46710 01 53 37.67 +25 36 02.1 20.1 G G96 – Mt. Lemmon Survey MPS 826184
2017 10 21.29703 01 47 10.05 +25 03 42.6 20.3 G G96 – Mt. Lemmon Survey MPS 831680
2017 10 21.30177 01 47 09.83 +25 03 41.4 20.2 G G96 – Mt. Lemmon Survey MPS 831680
2017 10 21.30648 01 47 09.57 +25 03 39.9 20.2 G G96 – Mt. Lemmon Survey MPS 831680
2017 10 21.31121 01 47 09.33 +25 03 38.6 20.3 G G96 – Mt. Lemmon Survey MPS 831680
2017 10 24.28473 01 44 39.58 +24 48 42.7 19.9 G 703 – Catalina Sky Survey MPS 831680
2017 10 24.29031 01 44 39.26 +24 48 41.6 20.2 G 703 – Catalina Sky Survey MPS 831680
2017 10 24.29584 01 44 38.89 +24 48 40.9 20.4 G 703 – Catalina Sky Survey MPS 831680
2017 10 24.30149 01 44 38.72 +24 48 39.3 20.2 G 703 – Catalina Sky Survey MPS 831680
2017 10 27.27351 01 42 10.31 +24 32 29.4 19.9 G G96 – Mt. Lemmon Survey MPS 831680
2017 10 27.27887 01 42 10.03 +24 32 27.6 20.3 G G96 – Mt. Lemmon Survey MPS 831680
2017 10 27.28418 01 42 09.76 +24 32 25.4 20.1 G G96 – Mt. Lemmon Survey MPS 831680
2017 10 27.28955 01 42 09.48 +24 32 24.0 20.2 G G96 – Mt. Lemmon Survey MPS 831680
2017 11 23.56276 01 24 37.09 +21 37 25.7 21.1 R D29 – Purple Mountain Observatory, XuYi Station MPS 842870
2017 11 23.57690 01 24 36.73 +21 37 20.9 21.3 R D29 – Purple Mountain Observatory, XuYi Station MPS 842870
2017 11 23.59104 01 24 36.37 +21 37 14.3 21.1 R D29 – Purple Mountain Observatory, XuYi Station MPS 842870
2017 11 27.14750 01 23 26.43 +21 15 17.7 21.0 G G96 – Mt. Lemmon Survey MPS 845035
2017 11 27.15271 01 23 26.33 +21 15 15.6 20.6 G G96 – Mt. Lemmon Survey MPS 845035
2017 11 27.15796 01 23 26.20 +21 15 13.7 20.6 G G96 – Mt. Lemmon Survey MPS 845035
2017 11 27.16318 01 23 26.13 +21 15 11.6 20.6 G G96 – Mt. Lemmon Survey MPS 845035
2018 01 01.27513 01 28 51.976 +19 00 58.36 21.1 i F51 – Pan-STARRS 1, Haleakala MPS 855500
2018 01 01.28870 01 28 52.386 +19 00 57.12 21.1 i F51 – Pan-STARRS 1, Haleakala MPS 855500
2018 01 01.30229 01 28 52.858 +19 00 55.90 20.9 i F51 – Pan-STARRS 1, Haleakala MPS 855500
2019 01 03.57488 09 04 52.485 +12 19 32.60 20.9 w F51 – Pan-STARRS 1, Haleakala MPS 967052
2019 01 03.58673 09 04 52.035 +12 19 31.97 21.0 w F51 – Pan-STARRS 1, Haleakala MPS 967052
2019 01 03.59847 09 04 51.578 +12 19 31.34 20.7 w F51 – Pan-STARRS 1, Haleakala MPS 967052
2019 01 03.61020 09 04 51.139 +12 19 30.73 20.7 w F51 – Pan-STARRS 1, Haleakala MPS 967052
2019 01 10.44188 09 00 14.117 +12 15 30.55 20.5 w F51 – Pan-STARRS 1, Haleakala MPS 1371999
2019 01 10.45372 09 00 13.573 +12 15 30.39 20.5 w F51 – Pan-STARRS 1, Haleakala MPS 1371999
2019 01 10.46552 09 00 13.030 +12 15 30.23 20.7 w F51 – Pan-STARRS 1, Haleakala MPS 1371999
2019 01 10.47733 09 00 12.484 +12 15 29.93 20.9 w F51 – Pan-STARRS 1, Haleakala MPS 1371999
2019 01 27.28199 08 46 04.80 +12 21 10.2 20.4 G G96 – Mt. Lemmon Survey MPS 967052
2019 01 27.28712 08 46 04.50 +12 21 10.3 20.5 G G96 – Mt. Lemmon Survey MPS 967052
2019 01 27.29223 08 46 04.22 +12 21 10.4 20.7 G G96 – Mt. Lemmon Survey MPS 967052
2019 01 27.29734 08 46 03.93 +12 21 10.9 20.4 G G96 – Mt. Lemmon Survey MPS 967052
2019 02 06.430989 08 37 00.310 +12 31 36.98 20.52 G T12 – University of Hawaii 88-inch telescope, Maunak MPS 974436
